QPF
0.08 0.07 0.08 0.14 0.19 0.13 0.09 0.07 0.04 0.03 0.02 0.02 0.03 0.03 0.03 0.03 0.03 0.02 0.02 0.02 0.02 0.03 0.03 0.02 0.03 0.03 0.03 0.03 0.03 0.04 0.04 0.04 0.04 0.04 0.06 0.07 0.06 0.06 0.07 0.06 0.06 0.06 0.07
0.06 0.06 0.08 0.08 0.12 0.11 0.08 0.05 0.03 0.01 0.01 0.01 0.02 0.02 0.02 0.02 0.02 0.02 0.01 0.01 0.01 0.01 0.01 0.01 0.01 0.01 0.02 0.02 0.03 0.03 0.02 0.02 0.02 0.02 0.03 0.04 0.04 0.04 0.05 0.06 0.06 0.06 0.08
0.03 0.03 0.06 0.06 0.05 0.06 0.05 0.02 0.01 0.01 0.00 0.00 0.01 0.01 0.01 0.01 0.00 0.00 0.00 0.00 0.00 0.00 0.00 0.00 0.00 0.00 0.00 0.01 0.01 0.01 0.02 0.01 0.01 0.01 0.01 0.01 0.01 0.02 0.02 0.03 0.04 0.06 0.07
0.02 0.03 0.03 0.03 0.02 0.02 0.01 0.00 0.00 0.00 0.00 0.00 0.00 0.00 0.00 0.00 0.00 0.00 0.00 0.00 0.00 0.00 0.00 0.00 0.00 0.00 0.00 0.00 0.00 0.00 0.00 0.00 0.00 0.00 0.00 0.01 0.01 0.01 0.01 0.01 0.02 0.04 0.06
0.02 0.02 0.02 0.01 0.01 0.00 0.00 0.00 0.00 0.00 0.00 0.00 0.00 0.00 0.00 0.00 0.00 0.00 0.00 0.00 0.00 0.00 0.00 0.00 0.01 0.01 0.01 0.00 0.00 0.00 0.00 0.00 0.00 0.00 0.00 0.00 0.00 0.00 0.00 0.00 0.01 0.01 0.02
0.01 0.02 0.01 0.01 0.00 0.00 0.00 0.00 0.00 0.00 0.00 0.00 0.00 0.00 0.00 0.00 0.00 0.00 0.00 0.00 0.00 0.00 0.00 0.00 0.00 0.00 0.00 0.00 0.01 0.01 0.01 0.01 0.00 0.00 0.00 0.00 0.00 0.01 0.01 0.01 0.01 0.01 0.02
0.01 0.01 0.01 0.00 0.00 0.00 0.00 0.00 0.00 0.00 0.00 0.00 0.00 0.00 0.00 0.00 0.00 0.00 0.00 0.00 0.00 0.00 0.00 0.00 0.00 0.00 0.00 0.00 0.00 0.00 0.00 0.00 0.00 0.00 0.00 0.00 0.00 0.01 0.01 0.01 0.01 0.01 0.01
0.01 0.00 0.00 0.00 0.00 0.00 0.00 0.00 0.00 0.00 0.00 0.00 0.00 0.00 0.00 0.00 0.00 0.00 0.00 0.00 0.00 0.00 0.00 0.00 0.00 0.00 0.00 0.00 0.00 0.00 0.00 0.00 0.00 0.00 0.00 0.00 0.00 0.00 0.01 0.01 0.00 0.00 0.01
0.00 0.00 0.00 0.00 0.00 0.00 0.00 0.00 0.00 0.00 0.00 0.00 0.00 0.00 0.00 0.00 0.00 0.00 0.00 0.00 0.00 0.00 0.00 0.00 0.00 0.00 0.00 0.00 0.00 0.00 0.00 0.00 0.00 0.00 0.00 0.00 0.00 0.00 0.00 0.00 0.00 0.00 0.00
0.00 0.00 0.00 0.00 0.00 0.00 0.00 0.00 0.00 0.00 0.00 0.00 0.00 0.00 0.00 0.00 0.00 0.00 0.00 0.00 0.00 0.00 0.00 0.00 0.00 0.00 0.00 0.00 0.00 0.00 0.00 0.00 0.00 0.00 0.00 0.00 0.00 0.00 0.00 0.00 0.00 0.00 0.00
0.00 0.00 0.00 0.00 0.00 0.00 0.00 0.00 0.00 0.00 0.00 0.00 0.00 0.00 0.00 0.00 0.00 0.00 0.00 0.00 0.00 0.00 0.00 0.00 0.00 0.00 0.00 0.00 0.00 0.00 0.00 0.00 0.00 0.00 0.00 0.00 0.00 0.00 0.00 0.00 0.00 0.00 0.00
0.00 0.00 0.00 0.00 0.00 0.00 0.00 0.00 0.00 0.00 0.00 0.00 0.00 0.00 0.00 0.00 0.00 0.00 0.00 0.00 0.00 0.00 0.00 0.00 0.00 0.00 0.00 0.00 0.00 0.00 0.00 0.00 0.00 0.00 0.00 0.00 0.00 0.00 0.00 0.00 0.00 0.00 0.00
0.00 0.00 0.00 0.00 0.00 0.00 0.00 0.00 0.00 0.00 0.00 0.00 0.00 0.00 0.00 0.00 0.00 0.00 0.00 0.00 0.00 0.00 0.00 0.00 0.00 0.00 0.00 0.00 0.00 0.00 0.00 0.00 0.00 0.00 0.00 0.00 0.00 0.00 0.00 0.00 0.00 0.00 0.00
0.00 0.00 0.00 0.00 0.00 0.00 0.00 0.00 0.00 0.00 0.00 0.00 0.00 0.00 0.00 0.00 0.00 0.00 0.00 0.00 0.00 0.00 0.00 0.00 0.00 0.00 0.00 0.00 0.00 0.00 0.00 0.00 0.00 0.00 0.00 0.00 0.00 0.00 0.00 0.00 0.00 0.00 0.00
0.00 0.00 0.00 0.00 0.00 0.00 0.00 0.00 0.00 0.00 0.00 0.00 0.00 0.00 0.00 0.00 0.00 0.00 0.00 0.00 0.00 0.00 0.00 0.00 0.00 0.00 0.00 0.00 0.00 0.00 0.00 0.00 0.00 0.00 0.00 0.00 0.00 0.00 0.00 0.00 0.00 0.00 0.00
0.00 0.00 0.00 0.00 0.00 0.00 0.00 0.00 0.00 0.00 0.00 0.00 0.00 0.00 0.00 0.00 0.00 0.00 0.00 0.00 0.00 0.00 0.00 0.00 0.00 0.00 0.00 0.00 0.00 0.00 0.00 0.00 0.00 0.00 0.00 0.00 0.00 0.00 0.00 0.00 0.00 0.00 0.00
0.00 0.00 0.00 0.00 0.00 0.00 0.00 0.00 0.00 0.00 0.00 0.00 0.00 0.00 0.00 0.00 0.00 0.00 0.00 0.00 0.00 0.00 0.00 0.00 0.00 0.00 0.00 0.00 0.00 0.00 0.00 0.00 0.00 0.00 0.00 0.00 0.00 0.00 0.00 0.00 0.00 0.00 0.00
0.00 0.00 0.00 0.00 0.00 0.00 0.00 0.00 0.00 0.00 0.00 0.00 0.00 0.00 0.00 0.00 0.00 0.00 0.00 0.00 0.00 0.00 0.00 0.00 0.00 0.00 0.00 0.00 0.00 0.00 0.00 0.00 0.00 0.00 0.00 0.00 0.00 0.00 0.00 0.00 0.00 0.00 0.00
0.00 0.00 0.00 0.00 0.00 0.00 0.00 0.00 0.00 0.00 0.00 0.00 0.00 0.00 0.00 0.00 0.00 0.00 0.00 0.00 0.00 0.00 0.00 0.00 0.00 0.00 0.00 0.00 0.00 0.00 0.00 0.00 0.00 0.00 0.00 0.00 0.00 0.00 0.00 0.00 0.00 0.00 0.00
0.00 0.00 0.00 0.00 0.00 0.00 0.00 0.00 0.00 0.00 0.00 0.00 0.00 0.00 0.00 0.00 0.00 0.00 0.00 0.00 0.00 0.00 0.00 0.00 0.00 0.00 0.00 0.00 0.00 0.00 0.00 0.00 0.00 0.00 0.00 0.00 0.00 0.00 0.00 0.00 0.00 0.00 0.00
0.00 0.00 0.00 0.00 0.00 0.00 0.00 0.00 0.00 0.00 0.00 0.00 0.00 0.00 0.00 0.00 0.00 0.00 0.00 0.00 0.00 0.00 0.00 0.00 0.00 0.00 0.00 0.00 0.00 0.00 0.00 0.00 0.00 0.00 0.00 0.00 0.00 0.00 0.00 0.00 0.00 0.00 0.00
0.00 0.00 0.00 0.00 0.00 0.00 0.00 0.00 0.00 0.00 0.00 0.00 0.00 0.00 0.00 0.00 0.00 0.00 0.00 0.00 0.00 0.00 0.00 0.00 0.00 0.00 0.00 0.00 0.00 0.00 0.00 0.00 0.00 0.00 0.00 0.00 0.00 0.00 0.00 0.00 0.00 0.01 0.01
0.01 0.01 0.01 0.00 0.00 0.00 0.00 0.01 0.01 0.01 0.00 0.00 0.01 0.01 0.01 0.01 0.00 0.00 0.00 0.00 0.00 0.00 0.00 0.00 0.00 0.00 0.00 0.00 0.00 0.00 0.00 0.00 0.00 0.00 0.00 0.00 0.00 0.00 0.00 0.00 0.00 0.00 0.00
0.01 0.01 0.01 0.00 0.00 0.00 0.00 0.01 0.01 0.01 0.02 0.02 0.02 0.01 0.01 0.01 0.00 0.00 0.00 0.00 0.00 0.00 0.01 0.00 0.00 0.00 0.00 0.00 0.00 0.00 0.00 0.00 0.00 0.00 0.00 0.00 0.01 0.00 0.00 0.00 0.00 0.00 0.00
0.01 0.01 0.01 0.01 0.01 0.02 0.02 0.01 0.01 0.02 0.02 0.02 0.01 0.01 0.01 0.01 0.01 0.01 0.01 0.01 0.01 0.01 0.01 0.00 0.00 0.00 0.00 0.00 0.00 0.00 0.00 0.00 0.00 0.00 0.00 0.00 0.00 0.00 0.00 0.01 0.01 0.01 0.01
0.01 0.01 0.01 0.01 0.02 0.02 0.01 0.01 0.01 0.01 0.01 0.01 0.01 0.01 0.01 0.01 0.01 0.01 0.01 0.01 0.01 0.01 0.01 0.00 0.00 0.00 0.00 0.00 0.00 0.00 0.00 0.00 0.00 0.00 0.00 0.00 0.00 0.00 0.01 0.02 0.02 0.01 0.01
MSLP
1014.27 1014.60 1014.90 1015.13 1015.28 1015.34 1015.37 1015.42 1015.53 1015.74 1016.05 1016.45 1016.88 1017.31 1017.68 1017.97 1018.16 1018.27 1018.33 1018.37 1018.44 1018.55 1018.72 1018.93 1019.18 1019.42 1019.64 1019.81 1019.92 1019.99 1020.01 1020.01 1019.99 1019.95 1019.89 1019.81 1019.69 1019.54 1019.35 1019.15 1018.95 1018.80 1018.70
1015.09 1015.36 1015.59 1015.73 1015.78 1015.76 1015.72 1015.73 1015.85 1016.08 1016.44 1016.88 1017.35 1017.79 1018.16 1018.41 1018.55 1018.60 1018.60 1018.60 1018.64 1018.76 1018.95 1019.19 1019.47 1019.73 1019.94 1020.10 1020.18 1020.21 1020.19 1020.17 1020.14 1020.12 1020.10 1020.07 1020.01 1019.91 1019.76 1019.57 1019.37 1019.17 1019.01
1015.78 1016.03 1016.22 1016.30 1016.29 1016.23 1016.16 1016.15 1016.27 1016.53 1016.92 1017.40 1017.89 1018.34 1018.69 1018.90 1018.98 1018.97 1018.91 1018.87 1018.89 1018.99 1019.18 1019.44 1019.72 1019.98 1020.19 1020.33 1020.38 1020.38 1020.35 1020.31 1020.29 1020.31 1020.34 1020.37 1020.38 1020.34 1020.24 1020.08 1019.87 1019.64 1019.42
1016.22 1016.49 1016.69 1016.77 1016.76 1016.69 1016.62 1016.62 1016.76 1017.04 1017.45 1017.94 1018.44 1018.88 1019.20 1019.38 1019.41 1019.35 1019.24 1019.15 1019.14 1019.22 1019.40 1019.65 1019.92 1020.17 1020.36 1020.47 1020.51 1020.49 1020.44 1020.41 1020.42 1020.48 1020.57 1020.67 1020.75 1020.77 1020.72 1020.58 1020.37 1020.12 1019.86
1016.35 1016.68 1016.93 1017.07 1017.11 1017.07 1017.04 1017.07 1017.23 1017.52 1017.94 1018.43 1018.92 1019.34 1019.64 1019.78 1019.78 1019.68 1019.54 1019.42 1019.37 1019.43 1019.58 1019.80 1020.05 1020.27 1020.44 1020.52 1020.54 1020.51 1020.46 1020.45 1020.49 1020.59 1020.73 1020.90 1021.03 1021.11 1021.10 1020.99 1020.80 1020.54 1020.24
1016.18 1016.59 1016.93 1017.16 1017.28 1017.32 1017.34 1017.41 1017.59 1017.89 1018.31 1018.78 1019.25 1019.65 1019.93 1020.05 1020.03 1019.92 1019.77 1019.63 1019.57 1019.60 1019.72 1019.91 1020.11 1020.29 1020.42 1020.47 1020.47 1020.42 1020.39 1020.39 1020.46 1020.60 1020.78 1020.99 1021.18 1021.30 1021.32 1021.24 1021.06 1020.80 1020.50
1015.75 1016.25 1016.71 1017.04 1017.26 1017.39 1017.48 1017.59 1017.79 1018.10 1018.50 1018.95 1019.40 1019.78 1020.04 1020.16 1020.15 1020.05 1019.91 1019.78 1019.71 1019.72 1019.81 1019.96 1020.11 1020.24 1020.32 1020.33 1020.30 1020.25 1020.21 1020.22 1020.31 1020.47 1020.69 1020.92 1021.13 1021.28 1021.33 1021.27 1021.11 1020.87 1020.58
1015.16 1015.75 1016.31 1016.75 1017.07 1017.28 1017.44 1017.60 1017.82 1018.13 1018.51 1018.94 1019.36 1019.72 1019.99 1020.12 1020.14 1020.07 1019.96 1019.86 1019.80 1019.80 1019.85 1019.95 1020.05 1020.12 1020.15 1020.12 1020.05 1019.98 1019.94 1019.95 1020.05 1020.22 1020.44 1020.68 1020.90 1021.06 1021.12 1021.08 1020.95 1020.74 1020.48
1014.52 1015.18 1015.80 1016.33 1016.74 1017.03 1017.25 1017.46 1017.70 1018.00 1018.37 1018.78 1019.18 1019.54 1019.80 1019.96 1020.02 1019.99 1019.93 1019.86 1019.81 1019.81 1019.84 1019.89 1019.94 1019.95 1019.92 1019.85 1019.75 1019.66 1019.60 1019.60 1019.69 1019.85 1020.06 1020.29 1020.50 1020.66 1020.73 1020.71 1020.61 1020.44 1020.23
1013.91 1014.60 1015.27 1015.85 1016.32 1016.67 1016.95 1017.20 1017.46 1017.77 1018.14 1018.53 1018.92 1019.27 1019.55 1019.73 1019.83 1019.85 1019.83 1019.79 1019.76 1019.75 1019.76 1019.78 1019.78 1019.74 1019.66 1019.54 1019.41 1019.29 1019.21 1019.20 1019.27 1019.40 1019.59 1019.80 1019.99 1020.14 1020.21 1020.21 1020.14 1020.02 1019.87
1013.37 1014.06 1014.74 1015.34 1015.85 1016.25 1016.57 1016.87 1017.17 1017.50 1017.86 1018.25 1018.64 1018.98 1019.27 1019.47 1019.59 1019.65 1019.66 1019.65 1019.63 1019.62 1019.62 1019.60 1019.55 1019.47 1019.35 1019.20 1019.05 1018.90 1018.81 1018.78 1018.82 1018.93 1019.09 1019.26 1019.43 1019.56 1019.64 1019.65 1019.61 1019.53 1019.43
1012.89 1013.56 1014.22 1014.83 1015.35 1015.78 1016.16 1016.50 1016.84 1017.20 1017.59 1017.98 1018.37 1018.71 1018.99 1019.20 1019.33 1019.40 1019.43 1019.43 1019.42 1019.41 1019.39 1019.34 1019.27 1019.16 1019.02 1018.85 1018.67 1018.52 1018.41 1018.36 1018.38 1018.46 1018.58 1018.73 1018.87 1018.99 1019.06 1019.08 1019.06 1019.02 1018.96
1012.45 1013.07 1013.71 1014.30 1014.82 1015.29 1015.71 1016.10 1016.49 1016.90 1017.31 1017.72 1018.11 1018.44 1018.71 1018.91 1019.04 1019.10 1019.13 1019.13 1019.13 1019.11 1019.08 1019.02 1018.94 1018.81 1018.66 1018.48 1018.30 1018.14 1018.02 1017.96 1017.96 1018.01 1018.11 1018.23 1018.34 1018.44 1018.50 1018.53 1018.52 1018.50 1018.46
1011.99 1012.57 1013.16 1013.73 1014.26 1014.75 1015.21 1015.67 1016.12 1016.58 1017.03 1017.45 1017.84 1018.16 1018.41 1018.59 1018.70 1018.75 1018.77 1018.77 1018.75 1018.73 1018.70 1018.64 1018.56 1018.44 1018.28 1018.11 1017.93 1017.77 1017.65 1017.58 1017.57 1017.60 1017.67 1017.76 1017.85 1017.93 1017.97 1017.99 1017.99 1017.97 1017.94
1011.49 1012.03 1012.58 1013.13 1013.66 1014.17 1014.68 1015.19 1015.70 1016.21 1016.69 1017.14 1017.52 1017.84 1018.07 1018.22 1018.31 1018.34 1018.35 1018.34 1018.33 1018.31 1018.28 1018.23 1018.16 1018.05 1017.91 1017.74 1017.58 1017.42 1017.30 1017.22 1017.20 1017.21 1017.26 1017.32 1017.39 1017.44 1017.46 1017.47 1017.45 1017.43 1017.40
1010.95 1011.45 1011.97 1012.49 1013.02 1013.56 1014.11 1014.67 1015.23 1015.78 1016.29 1016.75 1017.14 1017.44 1017.65 1017.79 1017.86 1017.88 1017.89 1017.88 1017.87 1017.87 1017.85 1017.82 1017.76 1017.66 1017.54 1017.38 1017.23 1017.08 1016.95 1016.87 1016.83 1016.83 1016.85 1016.89 1016.93 1016.95 1016.96 1016.94 1016.90 1016.86 1016.81
1010.38 1010.86 1011.36 1011.87 1012.40 1012.95 1013.53 1014.12 1014.71 1015.29 1015.82 1016.29 1016.67 1016.96 1017.17 1017.29 1017.36 1017.39 1017.40 1017.41 1017.42 1017.44 1017.44 1017.42 1017.38 1017.29 1017.17 1017.03 1016.87 1016.72 1016.59 1016.50 1016.45 1016.43 1016.44 1016.45 1016.47 1016.47 1016.44 1016.40 1016.33 1016.25 1016.17
1009.84 1010.30 1010.79 1011.29 1011.82 1012.38 1012.97 1013.58 1014.19 1014.77 1015.30 1015.77 1016.14 1016.43 1016.63 1016.76 1016.83 1016.88 1016.91 1016.95 1016.98 1017.02 1017.04 1017.04 1016.99 1016.91 1016.79 1016.64 1016.48 1016.33 1016.19 1016.09 1016.03 1016.00 1015.99 1015.99 1015.98 1015.96 1015.90 1015.83 1015.73 1015.62 1015.50
1009.34 1009.81 1010.29 1010.80 1011.33 1011.89 1012.48 1013.09 1013.69 1014.26 1014.78 1015.22 1015.59 1015.87 1016.07 1016.20 1016.30 1016.37 1016.43 1016.49 1016.55 1016.59 1016.62 1016.62 1016.57 1016.48 1016.35 1016.19 1016.02 1015.85 1015.72 1015.61 1015.55 1015.51 1015.49 1015.48 1015.46 1015.41 1015.34 1015.23 1015.10 1014.95 1014.80
1008.92 1009.40 1009.89 1010.41 1010.95 1011.51 1012.09 1012.68 1013.26 1013.80 1014.28 1014.70 1015.04 1015.31 1015.51 1015.65 1015.76 1015.85 1015.93 1016.00 1016.07 1016.12 1016.14 1016.11 1016.04 1015.93 1015.78 1015.60 1015.42 1015.26 1015.12 1015.03 1014.97 1014.94 1014.92 1014.91 1014.88 1014.83 1014.73 1014.60 1014.44 1014.26 1014.07
1008.54 1009.05 1009.58 1010.11 1010.67 1011.23 1011.80 1012.37 1012.91 1013.41 1013.85 1014.23 1014.54 1014.78 1014.97 1015.11 1015.22 1015.31 1015.39 1015.46 1015.51 1015.53 1015.52 1015.46 1015.35 1015.21 1015.03 1014.84 1014.66 1014.50 1014.38 1014.31 1014.27 1014.26 1014.26 1014.26 1014.24 1014.17 1014.07 1013.91 1013.73 1013.52 1013.30
1008.21 1008.76 1009.32 1009.89 1010.47 1011.04 1011.61 1012.15 1012.65 1013.10 1013.50 1013.83 1014.09 1014.30 1014.46 1014.58 1014.67 1014.73 1014.79 1014.82 1014.82 1014.79 1014.72 1014.61 1014.46 1014.28 1014.08 1013.88 1013.71 1013.57 1013.48 1013.44 1013.44 1013.46 1013.49 1013.51 1013.50 1013.43 1013.32 1013.15 1012.95 1012.72 1012.48
1007.91 1008.50 1009.10 1009.71 1010.32 1010.91 1011.47 1011.99 1012.46 1012.87 1013.21 1013.49 1013.71 1013.87 1013.98 1014.05 1014.09 1014.11 1014.10 1014.06 1013.99 1013.89 1013.75 1013.57 1013.36 1013.14 1012.93 1012.74 1012.58 1012.48 1012.43 1012.44 1012.48 1012.54 1012.61 1012.64 1012.64 1012.58 1012.46 1012.29 1012.07 1011.83 1011.57
1007.64 1008.27 1008.91 1009.56 1010.20 1010.80 1011.37 1011.88 1012.32 1012.69 1012.98 1013.21 1013.37 1013.47 1013.52 1013.53 1013.51 1013.44 1013.35 1013.22 1013.06 1012.86 1012.63 1012.38 1012.12 1011.87 1011.64 1011.46 1011.34 1011.28 1011.28 1011.33 1011.42 1011.52 1011.60 1011.66 1011.66 1011.60 1011.47 1011.30 1011.08 1010.83 1010.57
1007.45 1008.10 1008.77 1009.45 1010.11 1010.73 1011.29 1011.79 1012.20 1012.54 1012.79 1012.97 1013.07 1013.11 1013.10 1013.03 1012.92 1012.77 1012.57 1012.34 1012.07 1011.78 1011.46 1011.14 1010.83 1010.56 1010.33 1010.16 1010.07 1010.04 1010.09 1010.18 1010.29 1010.41 1010.51 1010.56 1010.55 1010.48 1010.35 1010.18 1009.96 1009.72 1009.48
1007.38 1008.03 1008.71 1009.40 1010.06 1010.68 1011.24 1011.72 1012.11 1012.41 1012.63 1012.75 1012.81 1012.79 1012.71 1012.57 1012.38 1012.13 1011.84 1011.51 1011.14 1010.76 1010.36 1009.98 1009.63 1009.33 1009.10 1008.95 1008.87 1008.87 1008.94 1009.04 1009.16 1009.27 1009.35 1009.37 1009.35 1009.26 1009.12 1008.94 1008.74 1008.53 1008.32
Thickness
5720 5720 5719 5718 5717 5715 5713 5712 5712 5712 5712 5710 5708 5705 5703 5702 5701 5700 5699 5698 5698 5697 5696 5694 5694 5693 5692 5691 5691 5690 5690 5689 5690 5690 5690 5692 5694 5696 5698 5700 5701 5703 5705
5717 5717 5716 5716 5714 5712 5711 5710 5710 5710 5710 5708 5705 5703 5700 5698 5696 5695 5695 5694 5693 5692 5691 5689 5688 5687 5686 5685 5685 5684 5683 5682 5682 5682 5680 5679 5683 5688 5692 5693 5695 5697 5699
5716 5715 5714 5714 5713 5711 5711 5711 5709 5708 5707 5705 5703 5700 5696 5694 5691 5690 5689 5688 5688 5687 5686 5684 5683 5681 5680 5679 5679 5678 5677 5675 5675 5675 5674 5672 5672 5675 5682 5685 5688 5690 5693
5719 5716 5715 5714 5713 5712 5711 5709 5708 5706 5705 5704 5701 5697 5693 5688 5686 5685 5684 5683 5683 5682 5680 5679 5677 5676 5674 5673 5673 5672 5671 5670 5668 5668 5668 5668 5668 5667 5670 5675 5679 5682 5685
5722 5719 5718 5716 5715 5713 5710 5708 5706 5704 5703 5701 5699 5695 5690 5687 5683 5681 5680 5678 5677 5676 5675 5674 5672 5670 5669 5667 5667 5665 5664 5663 5661 5660 5660 5660 5661 5661 5661 5662 5667 5672 5676
5725 5722 5720 5717 5715 5712 5710 5707 5704 5702 5700 5699 5696 5693 5689 5684 5681 5677 5675 5673 5672 5671 5670 5668 5667 5665 5663 5661 5660 5659 5657 5656 5655 5653 5653 5653 5652 5653 5653 5654 5656 5660 5666
5727 5723 5720 5717 5714 5712 5709 5706 5703 5700 5698 5696 5693 5690 5687 5683 5679 5675 5672 5670 5668 5666 5665 5663 5661 5659 5657 5655 5654 5652 5650 5649 5648 5647 5646 5645 5646 5646 5646 5646 5648 5650 5655
5730 5727 5724 5720 5716 5713 5709 5706 5702 5699 5696 5694 5691 5688 5684 5680 5677 5674 5670 5667 5665 5663 5661 5658 5656 5654 5652 5650 5647 5645 5644 5643 5641 5641 5639 5639 5639 5638 5639 5639 5640 5641 5645
5732 5728 5725 5721 5718 5714 5711 5708 5703 5699 5696 5693 5689 5685 5682 5679 5675 5672 5668 5665 5662 5659 5657 5654 5651 5649 5646 5644 5642 5640 5638 5637 5635 5634 5633 5632 5632 5632 5632 5632 5633 5633 5635
5733 5730 5727 5724 5720 5717 5713 5708 5704 5700 5696 5691 5688 5685 5681 5677 5674 5670 5666 5663 5660 5657 5653 5650 5648 5645 5642 5640 5637 5635 5633 5631 5629 5628 5627 5626 5625 5625 5624 5624 5625 5625 5627
5736 5733 5730 5726 5722 5717 5712 5707 5703 5698 5694 5690 5687 5683 5680 5676 5672 5668 5664 5661 5657 5654 5651 5647 5644 5641 5638 5636 5633 5630 5628 5626 5624 5622 5621 5620 5619 5618 5617 5617 5617 5617 5618
5740 5736 5731 5725 5720 5716 5711 5707 5703 5698 5694 5690 5686 5682 5678 5674 5670 5666 5663 5659 5655 5652 5648 5645 5641 5638 5635 5632 5629 5626 5624 5621 5619 5617 5616 5614 5613 5612 5611 5610 5610 5610 5610
5737 5733 5729 5724 5721 5717 5712 5708 5703 5698 5694 5689 5684 5680 5676 5672 5668 5664 5661 5657 5653 5649 5646 5642 5638 5635 5632 5629 5626 5623 5620 5617 5615 5612 5610 5609 5607 5605 5604 5603 5603 5603 5604
5737 5732 5727 5724 5721 5717 5713 5708 5703 5698 5693 5688 5683 5679 5675 5671 5667 5663 5659 5655 5651 5647 5643 5640 5636 5632 5629 5626 5623 5619 5616 5613 5611 5608 5605 5603 5601 5600 5599 5597 5597 5596 5596
5735 5733 5729 5724 5720 5716 5711 5707 5702 5697 5693 5687 5682 5678 5674 5670 5665 5661 5657 5653 5649 5645 5641 5637 5634 5630 5627 5624 5620 5617 5613 5610 5607 5604 5601 5599 5597 5595 5593 5593 5592 5590 5590
5738 5735 5731 5726 5721 5717 5712 5707 5702 5697 5691 5686 5682 5678 5672 5668 5663 5659 5655 5651 5647 5643 5638 5634 5631 5627 5625 5622 5618 5614 5610 5606 5602 5599 5596 5594 5592 5591 5589 5588 5587 5586 5584
5742 5738 5734 5730 5725 5720 5715 5708 5703 5696 5690 5685 5681 5676 5671 5666 5662 5658 5653 5648 5644 5640 5636 5632 5628 5625 5622 5619 5615 5611 5607 5602 5598 5595 5591 5589 5588 5586 5584 5583 5582 5581 5581
5745 5741 5737 5731 5727 5721 5715 5709 5702 5695 5689 5684 5679 5675 5670 5665 5660 5654 5650 5646 5641 5637 5633 5629 5626 5622 5620 5617 5613 5608 5604 5599 5595 5591 5588 5585 5583 5581 5579 5577 5577 5576 5576
5750 5745 5740 5734 5726 5719 5713 5705 5698 5692 5687 5682 5678 5673 5668 5662 5657 5652 5648 5643 5638 5634 5630 5627 5623 5619 5617 5614 5610 5605 5600 5596 5592 5589 5585 5582 5579 5577 5574 5572 5571 5572 5572
5747 5742 5737 5729 5722 5716 5710 5702 5696 5690 5686 5682 5677 5672 5666 5660 5655 5650 5646 5641 5636 5632 5628 5624 5620 5616 5614 5611 5607 5602 5597 5593 5590 5586 5583 5579 5576 5574 5570 5567 5566 5566 5567
5743 5738 5732 5726 5720 5713 5706 5699 5693 5689 5687 5681 5675 5669 5663 5658 5653 5648 5643 5637 5632 5628 5624 5621 5618 5614 5611 5608 5604 5599 5594 5590 5587 5583 5580 5578 5573 5570 5566 5563 5561 5561 5560
5736 5732 5726 5721 5715 5709 5703 5696 5691 5689 5683 5677 5670 5665 5660 5655 5651 5644 5640 5634 5629 5624 5620 5616 5614 5611 5608 5605 5601 5597 5592 5588 5583 5580 5578 5574 5570 5566 5563 5560 5558 5556 5553
5731 5727 5722 5715 5709 5704 5700 5694 5690 5685 5679 5672 5667 5661 5656 5651 5646 5641 5636 5631 5626 5620 5617 5613 5610 5608 5606 5602 5598 5594 5590 5585 5580 5577 5574 5570 5566 5562 5559 5557 5554 5551 5549
5724 5720 5715 5709 5703 5699 5696 5692 5687 5680 5674 5668 5663 5658 5652 5647 5641 5636 5632 5627 5623 5618 5614 5610 5607 5605 5602 5599 5596 5591 5587 5582 5577 5573 5569 5565 5561 5557 5555 5553 5551 5548 5546
5719 5714 5709 5704 5699 5694 5690 5687 5681 5675 5669 5664 5659 5653 5648 5643 5638 5634 5630 5626 5622 5618 5613 5610 5605 5601 5599 5598 5593 5587 5583 5578 5573 5567 5562 5559 5557 5555 5553 5550 5547 5545 5542
5712 5707 5702 5698 5693 5688 5684 5679 5675 5670 5664 5658 5653 5648 5643 5638 5634 5629 5626 5623 5619 5616 5611 5607 5603 5600 5596 5593 5588 5583 5578 5572 5566 5560 5558 5557 5554 5551 5549 5547 5545 5543 5540